GFSNW_850_temp_000.txt.gz
Temp
13 14 14 15 15 16 16 15 13 16 16 15 11 11 16 17 17 17 16 15 14 14 14 13 14 14 14 15 14 13 12 8 7 12 12 14 14 12 11 6 10 7 6 11
13 13 14 15 15 16 16 15 15 16 16 7 5 14 15 15 15 14 15 15 15 15 14 13 13 14 15 15 14 13 13 8 7 10 11 11 12 12 11 9 5 7 5 8
12 13 14 14 15 15 16 16 7 16 16 14 12 14 14 14 15 15 16 15 15 13 13 12 13 12 13 14 14 14 13 9 9 8 10 10 10 11 11 10 3 8 9 10
12 12 13 14 14 15 15 15 13 14 7 11 13 13 14 14 14 15 15 14 13 13 11 11 11 11 11 13 13 13 10 8 9 9 10 10 10 10 10 9 9 7 9 9
12 12 12 13 14 15 15 15 15 14 13 14 13 9 14 14 14 14 13 12 12 11 12 11 11 11 11 10 11 10 9 6 8 8 9 9 8 9 9 8 9 8 9 9
11 11 12 13 14 14 14 14 14 15 10 10 7 8 14 14 14 14 14 14 12 9 12 12 12 12 12 12 10 7 8 4 3 9 5 6 7 8 8 9 9 9 7 8
10 11 11 12 13 13 14 13 14 14 5 7 8 13 14 12 13 13 14 14 10 12 12 12 12 12 10 8 8 9 4 2 3 5 5 7 10 10 10 9 9 9 8 7
10 10 11 11 12 12 12 13 13 13 3 6 11 13 13 13 13 13 13 13 13 12 12 4 4 4 5 6 9 8 7 3 4 5 6 8 8 10 11 9 8 7 7 7
9 9 10 11 11 11 12 12 12 12 12 6 12 12 12 6 7 10 12 12 11 12 4 1 2 3 5 7 9 6 4 2 3 5 5 7 7 9 11 10 7 9 8 7
8 8 9 10 11 11 11 11 11 11 12 12 11 12 8 11 10 6 10 11 11 10 3 3 5 4 6 5 3 3 1 3 3 -1 2 3 7 10 10 5 7 9 8 8
7 8 8 9 9 10 10 10 10 11 11 11 11 11 11 11 11 4 10 9 8 3 3 3 3 5 3 4 6 6 6 3 4 3 5 6 9 9 7 8 8 8 8 7
7 8 8 8 8 9 9 9 10 10 10 10 10 10 11 10 10 10 10 10 10 9 2 2 -0 3 3 1 6 8 7 6 5 5 5 8 9 9 9 8 8 8 6 6
7 7 7 7 8 8 8 8 9 9 9 9 9 10 10 10 10 9 9 9 10 10 10 6 2 4 3 5 5 4 6 9 5 6 8 9 9 9 9 8 7 5 4 4
7 7 7 7 7 7 7 8 8 8 7 7 9 10 10 10 9 9 9 9 9 9 9 8 2 3 5 4 6 5 7 6 6 6 7 8 8 9 7 6 5 4 3 2
7 7 7 7 7 7 6 7 7 7 7 5 7 9 10 9 9 9 9 9 9 8 8 4 3 4 4 3 2 4 7 7 5 6 8 7 7 6 5 5 3 1 0 1
6 7 7 6 6 6 6 6 7 7 6 6 3 7 7 8 8 8 8 8 7 7 7 6 7 8 7 3 4 9 9 9 8 7 7 7 6 5 3 3 3 4 4 4
6 6 6 6 6 5 5 6 7 7 6 5 5 5 5 5 5 7 7 7 7 6 7 6 7 7 6 2 6 8 8 8 8 7 6 5 3 2 1 1 3 4 4 3
5 5 6 6 6 5 5 5 6 6 5 5 3 3 4 5 5 5 5 5 5 6 5 4 5 5 5 3 7 8 8 8 7 6 4 3 2 2 3 3 2 2 3 2
5 4 5 5 4 4 4 5 4 4 5 4 2 2 3 3 4 4 4 4 2 3 2 3 4 1 4 4 6 7 7 6 6 5 4 3 3 3 3 3 3 2 2 1
3 4 4 4 3 3 3 3 3 4 3 3 1 2 2 3 3 1 2 1 1 2 1 2 1 4 6 7 7 7 6 5 5 4 3 3 2 2 2 2 1 1 1 0
3 3 2 2 2 2 2 2 1 1 0 0 0 1 2 2 1 1 1 1 0 1 -1 2 -2 1 3 7 7 6 5 4 4 3 3 3 2 2 2 2 1 1 -0 -1
2 3 1 1 1 1 1 0 -0 -0 0 -0 -0 1 2 1 1 1 -0 -0 -1 1 0 -0 1 -1 4 5 4 4 4 4 4 3 3 2 2 1 1 0 -0 -1 -1 -2
1 1 1 1 0 1 0 1 0 -0 0 0 1 0 1 0 0 -1 -1 -0 -1 -0 0 1 -2 3 4 4 4 4 3 3 3 3 2 2 1 1 -0 -1 -1 -1 -2 -2
1 1 -1 -1 -2 -2 -2 -2 -1 -0 0 1 1 -0 -1 -1 -2 -0 -1 -3 -3 -2 -0 -2 -3 2 3 3 3 2 2 2 2 1 1 1 0 0 -0 -1 -1 -2 -2 -3
0 0 -2 -4 -1 -1 -1 -0 -0 0 0 0 -0 -1 -0 -3 -5 -6 -6 -5 -0 -1 -3 -5 2 1 1 1 1 1 1 1 1 1 1 0 0 -0 -0 -1 -1 -2 -3 -3
-0 -1 -4 -2 -1 -2 -1 -1 -1 -1 -0 -0 0 -3 -5 -5 -6 -6 -6 -5 -4 -4 -5 1 1 1 0 0 0 0 0 0 -0 -0 -0 -0 -0 -1 -1 -1 -1 -2 -3 -4
-1 -2 -1 -1 -1 -1 -2 -1 -0 -1 -0 -4 -2 -6 -3 -4 -8 -7 -4 -5 -6 1 1 1 0 -0 -0 -0 -0 -0 -1 -1 -1 -1 -1 -1 -1 -1 -2 -2 -2 -3 -4 -4

GFSNW_850_temp_006.txt.gz
Temp
13 13 14 14 15 15 15 16 12 15 16 14 8 9 14 14 13 15 14 13 13 13 12 12 13 13 13 13 13 12 10 7 7 11 11 11 11 10 8 5 8 5 4 6
12 13 13 14 15 15 16 16 15 16 16 7 3 12 12 13 14 12 13 13 12 12 11 12 12 12 12 13 12 12 11 7 6 9 10 10 10 10 9 5 4 6 4 7
12 12 13 14 15 15 16 16 8 15 16 12 10 11 12 13 14 13 12 12 13 11 10 9 11 11 12 12 12 12 11 7 8 7 9 8 8 9 8 8 6 7 7 9
12 12 13 14 15 15 16 15 11 12 6 9 11 11 13 13 13 13 13 11 11 11 9 10 10 10 10 11 11 10 8 8 7 7 8 7 8 8 7 6 7 7 9 7
12 12 13 13 14 15 15 15 13 12 10 11 11 7 12 12 12 13 12 11 11 11 11 11 11 10 10 10 10 9 6 5 7 6 6 6 6 6 6 6 6 6 7 6
11 12 13 13 14 14 14 14 14 15 6 7 6 7 12 12 12 12 13 11 10 9 11 12 12 12 12 10 10 7 7 3 3 4 4 4 6 7 7 8 7 7 7 8
10 11 12 13 13 14 14 14 14 15 4 3 6 11 12 11 12 11 12 12 9 12 12 11 11 10 8 8 7 8 2 2 2 3 5 6 8 9 9 8 7 7 6 6
10 11 11 12 13 13 14 14 14 14 2 4 10 11 11 11 12 11 12 11 12 11 12 4 3 3 4 4 4 4 4 2 4 6 6 6 9 9 10 8 7 8 7 7
9 10 10 11 12 12 13 13 13 14 12 6 12 11 11 5 5 8 10 10 10 11 5 2 2 4 4 7 7 3 2 -0 2 4 5 6 7 8 9 8 5 7 8 8
9 9 9 10 11 12 12 13 13 13 13 12 11 11 8 11 9 5 8 9 9 9 0 2 1 3 4 5 3 2 1 2 5 6 5 4 6 7 8 6 7 8 8 7
8 8 9 9 10 11 11 12 12 12 12 12 11 12 12 10 10 4 8 7 6 2 3 2 2 -2 2 4 5 4 5 3 1 2 4 4 7 8 7 8 9 7 7 5
7 7 8 8 9 10 11 11 11 11 11 11 11 11 11 11 11 11 10 9 9 8 2 2 -0 1 0 2 5 5 5 5 5 6 4 7 8 7 8 8 6 6 5 3
7 7 7 8 8 9 10 10 10 10 10 11 10 11 11 10 10 10 11 9 10 10 9 5 0 2 1 5 4 3 5 7 5 6 7 7 8 8 7 5 4 3 2 2
6 7 7 7 7 8 8 9 9 10 9 8 9 10 10 10 10 10 10 10 9 9 8 7 1 3 5 3 5 4 5 6 5 5 7 7 7 6 5 4 3 3 2 2
6 6 6 6 7 7 8 8 8 8 9 6 9 9 10 9 9 9 9 8 8 8 6 4 3 4 3 3 2 3 6 5 4 7 8 6 5 5 4 3 2 1 3 2
6 6 6 6 6 6 7 7 7 8 8 8 2 7 8 8 8 8 8 7 7 6 7 5 6 8 7 3 4 8 8 8 8 7 6 6 5 3 2 2 2 2 2 2
6 6 6 6 6 6 6 7 7 8 6 6 4 4 5 5 6 7 7 7 6 6 6 5 6 7 6 2 5 7 8 8 7 7 6 4 3 2 2 1 2 2 2 2
5 6 6 6 6 6 6 6 7 7 5 6 3 3 5 5 5 4 4 4 4 5 5 4 4 4 4 4 6 6 6 6 6 5 4 3 2 1 1 1 1 1 1 1
5 5 6 5 5 5 5 5 5 6 5 5 2 3 3 3 3 4 3 3 2 2 2 2 3 1 4 3 3 3 5 4 3 3 2 2 1 1 1 1 1 1 1 0
5 5 4 3 3 4 5 4 4 4 3 3 2 3 2 4 3 2 3 2 1 2 1 1 1 2 3 2 2 3 3 3 2 2 2 2 1 2 2 1 1 0 0 -0
3 3 3 2 2 3 3 2 2 2 1 1 1 2 2 2 2 1 2 1 0 -1 -2 1 0 -0 1 2 2 2 2 2 2 2 1 2 1 1 1 0 0 -0 -1 -1
3 3 2 2 1 2 2 1 -0 0 1 -0 0 1 1 1 2 1 -0 -0 -1 0 -2 -1 -2 -2 1 2 2 2 2 2 1 1 1 1 1 0 -0 -1 -1 -1 -1 -1
3 4 2 2 1 1 1 1 1 0 -0 -0 -0 -0 1 0 1 -1 -1 -1 -2 -2 -3 -2 -3 1 1 1 1 1 1 1 1 1 0 -0 -1 -1 -1 -1 -1 -2 -2 -2
3 2 1 -0 -0 -0 -0 -0 -3 1 -0 -0 0 -1 -1 -1 -1 -2 -3 -4 -4 -1 -3 -4 -4 1 1 1 0 0 -0 -0 -0 -1 -1 -1 -1 -1 -1 -2 -2 -3 -3 -2
2 1 -2 -1 -2 -1 -1 -0 -0 -0 0 0 -1 -2 -1 -4 -4 -4 -5 -3 -2 -2 -4 -7 1 1 0 -0 -0 -0 -0 -1 -1 -1 -1 -2 -2 -2 -2 -2 -3 -3 -3 -3
0 -1 -5 -2 -2 -2 -1 -1 -0 -0 -0 -1 -0 -5 -4 -5 -6 -6 -4 -5 -5 -5 -6 1 0 -0 -0 -1 -1 -1 -1 -1 -1 -1 -2 -2 -2 -2 -3 -3 -3 -3 -4 -4
-1 -2 -3 -1 -2 -1 -0 -0 -0 -0 -1 -2 -2 -5 -4 -6 -9 -7 -6 -7 -7 -0 1 -0 -1 -1 -1 -1 -1 -1 -1 -1 -2 -2 -2 -2 -2 -3 -3 -3 -3 -4 -4 -4

GFSNW_850_temp_009.txt.gz
Temp
12 13 13 13 14 15 15 15 12 15 15 14 7 10 13 14 13 14 13 12 12 12 12 12 12 12 12 12 12 12 10 9 10 12 11 11 11 11 10 11 10 9 8 10
12 13 13 14 14 15 15 15 15 15 15 8 5 11 12 12 13 11 13 12 12 11 10 11 11 11 11 12 12 11 11 9 10 12 11 11 11 11 8 7 7 9 8 11
12 13 13 14 14 15 15 16 9 15 15 12 10 11 12 12 13 12 12 11 12 11 10 9 11 11 11 11 11 11 11 8 10 11 11 10 9 9 9 10 9 10 10 11
12 13 13 14 14 15 15 15 10 11 7 9 10 11 12 12 12 12 12 11 11 11 10 10 10 10 10 10 10 10 9 9 8 9 9 9 9 9 9 9 9 9 11 10
12 12 13 13 14 14 15 15 12 11 9 10 10 7 12 11 11 12 12 11 11 11 10 11 10 10 10 10 10 9 7 8 7 7 6 6 6 8 8 8 9 8 9 9
11 12 13 13 14 14 15 14 14 14 5 7 8 8 11 11 11 11 12 11 10 9 11 12 12 11 10 10 10 8 7 6 5 7 5 6 8 8 8 9 8 9 9 11
11 11 12 13 13 14 14 14 14 15 5 4 7 10 11 10 11 10 10 12 9 11 11 11 10 9 7 7 6 7 3 4 4 6 6 8 11 9 10 9 10 9 8 8
11 11 11 12 12 13 14 14 14 15 2 4 9 10 10 11 11 10 10 10 11 11 11 5 5 5 5 4 4 4 4 4 5 6 7 8 10 10 9 9 10 8 8 7
10 11 11 11 12 12 13 13 14 14 12 6 11 10 10 6 6 7 8 9 10 10 5 4 6 8 6 9 7 3 3 2 6 5 6 7 9 8 8 8 8 7 7 7
9 10 10 11 11 12 12 13 13 14 13 11 11 11 9 10 9 6 7 9 9 9 3 4 5 7 5 7 5 3 3 3 5 6 6 7 7 7 8 7 7 7 7 7
8 9 10 10 10 11 12 12 12 13 13 11 11 12 12 10 10 6 7 7 6 3 4 4 4 4 5 5 6 5 7 6 4 3 5 5 7 8 7 7 6 6 5 4
7 8 9 9 10 10 11 11 12 12 12 11 11 11 11 11 12 11 9 9 8 8 3 2 2 3 1 4 7 5 6 7 7 6 7 7 8 8 7 6 4 4 3 3
7 7 8 8 9 9 10 10 11 11 11 10 10 10 10 10 11 11 11 9 10 9 9 4 2 4 3 4 4 4 5 6 6 5 7 7 9 7 6 4 4 3 2 2
6 6 7 8 8 8 9 9 10 10 10 9 9 9 10 10 10 10 10 10 9 9 8 5 1 3 5 3 6 5 7 5 5 5 7 7 7 6 5 4 3 2 2 2
6 6 6 7 7 7 8 8 9 9 10 7 9 9 9 9 10 9 9 9 8 8 6 3 3 4 3 3 3 4 6 6 5 6 8 6 5 4 3 3 2 2 2 2
5 6 6 6 6 6 7 7 8 8 9 9 3 6 7 8 8 8 8 8 7 7 7 5 6 8 7 3 4 6 7 8 8 7 5 4 4 3 2 2 2 2 2 2
5 5 6 6 6 6 6 7 7 8 7 8 6 4 5 6 6 6 6 6 6 6 6 5 6 6 6 2 4 7 7 6 6 5 5 3 2 1 1 1 1 1 2 2
5 5 6 6 6 6 6 6 7 7 7 7 2 2 4 4 4 4 4 4 4 4 5 4 4 4 4 4 4 4 5 5 5 4 4 3 1 1 1 2 2 2 2 1
5 5 5 5 5 5 6 6 6 7 7 5 3 3 4 4 3 3 3 3 2 3 2 2 3 2 4 2 2 2 3 3 1 1 1 1 2 2 2 2 1 1 0 -0
5 5 5 4 4 5 5 5 5 5 4 3 3 3 3 4 2 2 3 2 1 2 1 1 1 2 1 1 1 1 2 2 2 2 2 2 2 1 1 0 -0 -1 -1 -1
3 3 2 2 3 3 3 2 2 1 1 1 2 2 2 3 2 2 2 1 0 2 1 2 1 2 1 1 1 1 2 2 1 1 1 1 0 0 -0 -0 -0 -1 -1 -1
1 1 0 1 1 0 0 1 -0 1 1 0 1 1 2 1 2 1 -1 1 -0 -0 -2 0 1 0 0 1 1 1 1 1 1 1 1 0 -0 -0 -1 -1 -2 -2 -2 -2
1 1 0 0 0 1 2 2 1 1 -0 -0 0 -0 1 0 1 -0 -1 -1 -0 -3 -1 -0 -1 0 1 1 1 1 0 0 0 0 -0 -1 -1 -1 -2 -2 -2 -2 -2 -2
2 2 1 0 0 0 -2 -1 -1 -0 0 -0 0 -1 -0 -1 -1 -2 -1 -3 -4 -1 -2 -1 -2 0 1 0 0 0 0 0 -0 -1 -1 -2 -2 -2 -2 -2 -2 -3 -3 -3
2 2 -1 -1 -2 -1 -1 -0 -0 -0 -0 0 -0 -2 -1 -4 -3 -3 -3 -2 -2 -2 -1 -2 0 0 0 0 -0 -0 -0 -1 -1 -1 -2 -2 -2 -2 -2 -2 -2 -3 -3 -4
1 -1 -3 -3 -2 -2 -1 -1 -0 -0 -0 -0 -1 -4 -2 -3 -4 -3 -3 -3 -3 -2 -4 1 0 0 -0 -1 -1 -1 -1 -1 -2 -2 -2 -2 -2 -2 -2 -2 -3 -3 -4 -4
-0 -3 -3 -2 -2 -1 -0 -0 -1 -0 -0 -2 -3 -2 -2 -6 -5 -4 -4 -4 -4 -0 0 0 -0 -1 -1 -0 -0 -1 -1 -2 -2 -2 -2 -2 -2 -2 -2 -2 -2 -4 -5 -5

GFSNW_850_temp_015.txt.gz
Temp
12 12 13 14 14 14 15 15 19 15 16 18 19 19 19 18 19 18 19 20 20 20 19 19 19 18 18 16 17 18 17 17 17 19 18 18 18 18 18 15 16 16 14 15
12 12 13 14 14 14 15 18 16 15 16 17 16 18 18 18 19 19 19 18 19 19 19 17 18 17 15 15 17 17 17 17 17 18 17 18 17 18 17 16 14 14 13 15
12 13 13 14 14 15 15 17 16 16 16 17 19 19 18 17 17 17 18 18 18 19 18 18 17 17 15 14 15 13 14 17 16 16 17 18 17 17 17 16 14 14 15 16
12 13 13 14 14 15 15 17 17 16 17 18 19 19 19 18 17 18 18 18 19 18 17 18 17 17 16 15 13 14 16 15 16 16 17 17 16 16 17 16 16 14 15 16
12 13 13 14 14 15 15 17 17 16 16 18 19 15 19 19 18 18 18 18 19 19 16 18 17 17 17 17 15 16 15 14 12 13 16 16 15 16 17 17 16 16 16 15
12 13 13 14 14 15 15 15 15 17 13 17 18 18 18 19 17 16 18 18 18 16 17 16 15 15 15 15 16 15 14 13 12 12 12 12 11 14 16 16 16 15 13 15
12 12 13 13 14 15 15 15 15 14 14 16 18 18 18 18 18 17 17 17 15 13 13 13 13 13 14 14 13 14 11 12 9 9 8 10 16 17 16 15 15 16 16 15
11 12 13 13 14 14 15 15 15 14 10 17 16 17 17 16 16 16 15 13 13 13 14 13 10 10 6 9 12 13 13 11 8 9 11 13 14 14 13 13 13 15 13 12
11 12 12 13 13 14 14 15 15 14 12 13 16 16 16 16 15 14 11 10 11 12 12 11 8 12 14 14 12 10 11 10 10 8 8 10 13 15 13 13 12 12 11 10
11 11 11 12 13 13 14 14 15 14 12 13 15 15 16 16 15 15 13 11 11 12 8 9 10 13 14 14 10 6 7 7 9 9 8 11 14 13 12 10 11 11 8 8
10 10 11 12 12 12 13 13 14 14 12 11 12 12 13 13 15 13 13 12 11 11 7 8 10 8 12 12 14 11 9 8 7 8 8 8 13 12 9 11 10 9 5 4
9 10 10 11 11 12 12 12 13 14 13 11 12 12 13 13 14 14 11 14 12 13 12 9 9 8 6 9 11 15 12 13 12 12 12 14 12 12 10 9 8 6 4 4
8 9 9 10 11 11 12 12 12 13 12 10 11 11 12 12 13 12 12 11 13 12 12 9 6 6 9 6 10 12 14 14 11 11 13 13 12 10 8 6 5 4 3 4
7 8 8 9 10 10 11 11 12 12 11 10 10 10 10 11 12 12 12 12 11 10 9 6 4 8 11 8 12 12 13 13 12 11 12 11 11 7 6 5 3 3 4 5
7 7 7 8 8 9 10 10 11 11 11 9 9 8 10 10 11 10 11 10 10 8 6 4 6 9 10 8 7 10 12 12 11 10 11 8 8 6 5 4 3 5 4 4
6 6 7 7 7 8 8 9 9 10 11 10 7 7 7 9 9 8 9 9 9 10 8 6 9 11 10 6 7 10 11 11 11 10 8 6 4 4 4 5 5 4 4 4
5 5 6 6 7 7 8 9 8 9 9 10 7 8 5 6 6 6 7 6 7 7 7 7 7 9 8 6 7 10 10 9 7 6 5 4 4 4 4 4 4 4 4 4
5 5 5 6 6 6 6 8 8 8 8 9 6 6 5 5 5 5 5 5 5 6 7 5 6 8 6 5 8 9 8 6 4 4 4 4 4 4 4 4 4 4 3 3
5 5 5 5 5 5 6 7 7 7 7 7 4 4 5 4 3 3 3 4 5 4 4 4 5 5 6 8 9 7 6 5 4 4 5 4 4 4 4 4 3 2 2 1
5 5 5 5 5 6 6 6 6 6 6 5 3 5 5 6 2 2 3 3 5 4 4 2 2 3 5 5 5 5 4 4 4 4 4 3 3 3 3 2 1 1 0 -1
4 4 4 3 4 5 5 4 5 4 3 3 4 4 4 4 4 3 3 3 3 4 4 4 4 5 6 4 3 3 3 3 4 3 3 2 2 2 1 1 -0 -1 -2 -2
3 3 2 3 2 2 3 2 0 1 3 1 1 1 3 2 3 2 0 2 2 5 4 3 4 7 5 3 3 3 3 3 2 2 2 1 1 0 -0 -1 -2 -2 -2 -2
1 1 0 0 -0 2 3 3 3 2 0 0 0 0 1 1 1 0 2 3 4 3 2 4 7 6 4 4 3 3 2 1 1 1 1 0 -0 -1 -1 -1 -1 -2 -2 -2
0 -0 1 1 2 2 2 3 2 0 1 1 1 -0 0 -0 1 0 3 1 3 2 3 4 7 5 4 3 3 2 2 1 1 1 1 0 -0 -1 -1 -1 -2 -2 -2 -2
-0 -0 1 1 -1 -1 -1 -1 -0 -0 0 1 1 0 1 1 1 1 1 1 2 4 5 5 5 4 3 2 1 1 1 1 1 -0 -1 -1 -1 -1 -2 -2 -2 -2 -2 -2
-0 -1 -0 -1 -0 -1 -1 -0 -1 -0 0 1 0 1 2 1 1 1 2 3 4 5 4 3 2 2 1 1 1 1 0 0 -0 -0 -1 -1 -1 -2 -2 -2 -2 -2 -2 -2
-1 -1 -2 -1 -1 -0 -1 -1 -0 -0 0 1 1 1 2 -1 1 2 3 3 3 2 2 2 2 0 0 1 0 0 0 -0 -1 -1 -1 -2 -2 -2 -2 -2 -3 -4 -3 -3

GFSNW_850_temp_021.txt.gz
Temp
11 11 12 13 14 14 15 15 12 16 16 15 15 13 19 19 19 19 20 20 20 20 20 18 17 16 16 17 17 16 16 14 11 16 18 18 18 17 15 8 12 8 7 10
11 11 12 13 13 14 14 15 15 15 16 10 8 17 19 20 19 19 20 19 18 19 18 16 15 15 16 16 14 13 14 14 9 13 15 16 18 17 17 12 7 10 6 9
11 11 12 13 13 14 14 15 10 15 15 16 16 18 18 18 19 18 20 19 20 19 17 18 15 14 15 15 14 14 14 15 12 10 15 15 16 16 16 12 7 9 8 12
11 11 12 13 13 14 13 15 14 15 10 13 14 17 16 17 17 18 19 19 18 17 17 17 14 14 14 14 14 15 13 12 13 13 14 15 15 14 14 14 13 11 11 13
11 12 12 13 14 14 13 15 15 17 16 17 16 13 17 17 17 17 18 18 18 16 16 15 14 14 14 14 14 14 13 9 11 12 13 12 12 12 12 13 15 14 13 12
11 12 12 13 14 14 15 15 16 17 14 15 13 14 18 18 17 18 18 17 13 11 13 14 14 15 15 15 14 12 11 7 6 8 9 7 7 11 14 14 14 14 12 12
11 12 12 13 14 14 15 16 16 16 10 12 14 17 18 16 17 16 15 16 12 14 15 15 15 14 13 14 13 13 8 7 4 4 4 6 12 14 13 12 13 12 11 10
11 12 13 13 14 14 15 16 16 16 5 14 16 18 18 16 14 13 13 15 15 15 15 7 9 5 6 9 12 12 11 5 3 4 5 8 12 13 12 11 10 10 9 9
11 12 12 13 14 15 15 15 15 15 13 10 16 17 17 11 11 11 12 14 14 14 8 4 6 7 9 9 10 8 8 5 4 4 3 4 9 12 13 13 6 9 9 7
11 12 12 13 13 14 14 15 15 15 15 14 15 14 13 15 13 8 12 12 13 13 3 5 4 7 11 8 7 4 5 5 3 2 2 5 9 13 13 7 7 9 8 7
11 11 12 12 13 13 14 14 14 15 14 13 14 15 16 15 15 7 12 9 10 5 5 4 4 4 5 8 9 5 4 4 3 5 6 4 12 12 8 8 9 8 7 6
10 11 12 12 12 12 13 13 14 14 14 13 13 13 14 15 14 14 13 13 11 10 5 3 4 4 5 5 6 10 8 6 5 6 5 10 13 13 11 11 9 7 7 6
10 10 11 12 12 12 12 13 13 14 13 12 12 13 13 13 14 14 13 13 13 12 11 7 6 3 4 4 5 11 12 11 6 8 10 12 11 10 9 8 8 7 6 6
9 9 10 11 11 11 12 12 12 13 12 9 11 11 12 13 13 13 14 14 13 12 11 4 3 2 8 3 6 5 9 11 10 7 10 12 9 9 7 6 6 6 5 5
8 9 9 10 10 11 11 11 11 12 12 8 9 10 10 11 12 12 12 13 13 11 8 3 3 6 6 6 4 4 11 9 6 5 10 10 7 6 6 6 5 5 5 5
7 8 8 9 10 10 10 11 11 11 11 11 4 9 8 9 10 10 11 10 11 11 10 6 8 11 10 3 4 9 11 11 11 10 9 9 7 6 5 5 5 5 5 5
6 7 8 8 9 9 10 10 9 10 10 11 5 7 7 8 9 9 9 10 10 9 9 8 8 9 9 2 4 8 11 11 9 9 8 6 6 5 5 5 5 5 4 4
5 6 7 7 8 8 8 9 9 9 10 10 4 5 6 7 7 7 7 7 8 8 7 7 6 8 6 4 6 10 10 10 9 7 6 6 5 5 5 5 5 4 4 3
5 5 5 6 6 7 7 8 8 8 9 7 5 2 3 6 4 4 5 6 3 5 4 5 6 2 4 5 7 9 9 8 6 6 5 5 5 5 5 4 4 3 2 2
5 5 5 6 6 7 7 7 7 8 7 6 4 5 4 5 4 3 4 4 2 3 3 4 2 3 5 7 8 8 8 7 7 6 5 5 5 4 3 3 3 2 1 1
5 5 5 5 5 6 7 6 5 4 3 5 5 5 4 4 2 2 3 2 1 4 2 3 3 3 4 7 6 7 6 6 6 5 5 4 3 3 3 2 2 1 1 -0
4 4 4 4 4 4 3 2 2 2 3 2 3 4 4 4 4 3 2 3 2 4 3 3 3 2 5 5 5 5 5 5 4 3 3 3 2 2 2 1 1 0 -1 -1
3 3 3 2 0 2 3 3 2 2 1 1 2 1 2 3 3 1 1 2 3 2 2 2 1 5 4 4 4 4 3 3 3 2 2 2 2 1 1 0 -0 -1 -1 -1
2 1 1 1 1 1 0 1 0 -0 0 0 1 0 1 1 1 0 2 1 1 2 2 -0 2 3 3 4 4 3 3 3 2 2 2 2 1 1 0 -0 -1 -1 -1 -2
0 1 1 0 -1 -1 -1 -1 -0 -0 -0 0 0 -0 0 -0 0 0 0 1 2 2 2 0 1 3 4 4 3 2 2 2 2 1 1 0 0 -0 -0 -1 -1 -1 -2 -2
0 -1 -1 -1 -0 -1 -1 -1 -1 -0 -0 -0 0 -0 1 1 0 1 2 2 2 1 0 1 2 2 3 3 2 1 1 1 1 1 0 -0 -0 -1 -1 -1 -1 -2 -2 -2
0 -1 -1 -1 -1 -0 -0 -1 -1 -0 0 0 0 1 -0 -1 0 1 0 1 -0 2 2 2 2 2 1 1 1 1 1 0 -0 -0 -0 -1 -1 -1 -2 -2 -2 -2 -2 -2

GFSNW_850_temp_024.txt.gz
Temp
11 12 13 14 14 14 14 14 11 15 15 14 11 12 16 19 18 19 19 19 18 18 18 16 14 15 15 15 15 15 14 11 10 15 17 17 17 16 12 8 13 6 6 9
11 12 12 13 14 14 14 15 14 14 15 9 6 13 18 18 18 18 19 18 17 17 16 14 14 14 14 15 13 14 14 12 9 12 13 14 16 16 12 9 6 10 6 8
11 11 12 13 14 14 14 15 9 13 14 14 13 15 17 17 18 18 18 18 18 16 16 14 13 13 14 15 14 14 13 12 11 10 13 13 15 15 13 10 6 8 7 11
11 11 12 13 13 14 14 14 12 15 9 12 13 15 15 16 16 18 18 17 17 16 15 15 12 13 13 14 14 14 11 11 12 13 12 14 14 13 13 12 11 9 10 10
11 11 12 13 13 13 13 14 14 14 13 15 14 12 14 15 16 17 17 17 16 15 14 14 12 13 12 13 13 13 10 8 11 12 10 10 12 11 11 11 13 13 10 10
11 11 12 12 13 13 14 15 15 16 11 11 11 12 15 15 16 16 16 13 10 10 12 12 13 13 14 13 12 10 9 6 5 7 7 7 7 10 13 13 12 12 10 9
11 11 12 13 13 14 15 15 15 16 9 10 12 16 17 14 16 13 13 14 11 13 14 15 15 13 12 12 10 11 7 5 2 4 3 6 11 11 13 11 11 9 8 7
11 12 12 13 14 14 14 15 15 16 4 10 14 16 12 13 13 12 12 12 14 14 15 6 8 5 7 7 8 8 9 3 2 4 5 7 12 11 11 11 10 9 8 7
11 12 12 13 13 14 15 15 16 16 14 9 14 13 13 9 9 8 12 13 13 15 5 3 5 7 9 8 10 7 6 3 3 3 3 5 8 11 13 12 6 9 9 7
11 12 12 13 14 14 15 15 15 16 14 13 14 12 12 14 10 7 11 13 13 12 0 4 3 6 9 7 6 4 4 2 2 -2 0 4 7 11 12 7 7 9 9 7
11 12 12 13 13 14 15 15 15 15 14 12 13 15 15 14 13 6 11 9 9 4 4 2 4 1 5 6 7 5 4 4 2 1 0 5 9 10 8 8 9 9 8 7
10 11 12 12 13 13 14 14 14 15 15 12 12 13 14 15 15 14 12 12 10 10 4 3 4 2 4 4 6 8 8 6 5 6 6 9 11 12 13 12 11 8 8 7
10 11 11 12 12 13 13 14 14 14 13 11 12 12 12 13 14 15 13 12 12 11 11 5 2 3 2 4 4 8 9 9 5 7 9 9 11 11 11 10 10 8 7 7
10 10 11 11 12 12 12 13 13 13 13 10 10 11 12 12 13 13 14 14 13 12 11 4 2 2 6 2 5 4 8 9 8 5 9 9 9 9 10 8 8 7 6 5
9 10 10 11 11 11 12 12 12 13 13 8 10 10 10 11 12 12 13 13 13 11 8 3 3 5 4 2 2 2 9 8 6 5 11 10 9 8 7 7 6 6 5 4
8 9 10 10 10 10 11 11 11 12 12 12 4 8 9 10 10 11 11 11 11 11 11 7 8 9 8 3 5 7 11 11 11 10 10 10 9 7 6 6 5 5 5 4
8 8 9 9 10 10 11 10 9 10 11 12 5 6 7 8 9 9 9 10 10 10 9 7 8 9 8 2 4 8 11 11 11 10 9 6 6 6 5 5 4 4 4 4
7 7 8 8 9 9 9 9 9 10 11 10 2 2 7 7 8 8 8 8 8 8 8 6 6 6 4 4 5 9 10 10 8 8 8 8 6 5 5 5 4 4 4 3
6 6 7 7 8 8 8 8 8 9 9 7 4 2 4 6 5 5 6 6 2 5 3 4 5 2 4 5 7 8 9 8 8 6 6 6 5 4 4 4 4 4 3 3
5 5 7 6 7 7 7 7 8 8 8 7 4 4 2 5 3 3 3 3 1 3 3 4 2 3 5 6 7 7 8 9 7 6 4 4 3 3 3 3 3 4 3 2
5 5 5 5 6 7 7 5 4 4 3 5 4 5 3 4 2 2 3 1 1 4 1 1 1 2 3 6 6 6 7 6 6 5 4 3 3 3 3 3 3 2 1 1
5 5 5 5 5 6 3 2 2 2 3 2 3 3 4 4 4 2 2 2 1 3 2 3 3 2 3 4 4 4 5 4 4 2 1 1 2 1 2 2 2 1 1 -0
4 4 4 3 1 2 4 4 2 2 1 2 2 2 3 3 4 2 1 2 3 2 2 3 2 4 2 3 3 3 3 2 1 1 0 1 2 2 2 1 0 -0 -0 -1
3 1 1 1 1 0 -0 0 0 -0 0 0 1 0 1 1 1 0 2 1 1 3 2 -1 1 2 2 2 3 3 3 3 2 2 2 2 1 1 0 -0 -0 -1 -1 -2
0 1 0 -1 -2 -2 -1 -1 -0 -0 -0 0 0 0 0 -0 0 -0 -0 1 2 1 1 0 0 1 1 2 2 3 2 2 2 1 1 1 0 -0 -0 -1 -1 -2 -2 -2
-0 -1 -1 -1 -1 -1 -1 -1 -1 -0 -0 -0 0 -0 1 -0 -0 0 1 1 1 0 -0 0 0 -0 -0 -0 -0 1 1 1 1 1 0 -0 -1 -1 -1 -1 -2 -2 -2 -2
-0 -1 -1 -1 -1 -1 -1 -1 -1 -0 -0 -1 -1 -1 -1 -1 -0 0 0 0 -0 1 1 1 1 1 0 -1 -1 0 0 0 0 -0 -1 -1 -1 -2 -2 -2 -2 -2 -2 -2

GFSNW_850_temp_027.txt.gz
Temp
11 11 12 13 14 14 14 15 10 14 15 13 8 10 14 17 18 19 18 17 18 16 16 14 14 14 14 14 15 15 13 10 10 15 14 15 15 15 11 7 12 5 6 9
11 11 12 13 14 14 14 14 12 13 15 8 6 12 15 17 17 17 18 17 17 16 14 13 13 13 13 14 13 14 13 11 9 12 12 13 15 14 10 8 6 9 5 8
11 11 12 13 14 14 14 14 8 12 13 13 11 14 16 16 17 17 17 17 16 15 14 12 12 13 13 14 13 13 13 10 11 10 12 12 14 14 11 10 6 8 7 11
10 11 12 13 14 14 14 14 11 13 8 10 11 13 15 16 16 17 17 17 17 15 14 13 12 12 13 13 13 12 11 11 12 11 10 13 14 13 11 11 10 9 10 9
10 11 12 13 13 13 14 14 12 13 11 15 12 11 14 15 16 16 16 15 13 15 13 13 12 12 12 13 13 11 8 8 11 11 9 9 11 11 10 10 10 9 11 9
10 11 12 13 13 13 14 14 14 16 8 9 10 10 14 14 15 14 14 13 11 11 12 12 12 12 13 12 11 9 8 6 6 7 6 7 7 9 10 11 11 10 8 8
10 11 12 13 13 14 14 14 15 15 7 9 11 13 15 13 14 13 13 14 11 12 13 13 13 12 11 10 8 10 6 3 1 4 3 6 10 10 11 11 11 9 8 6
11 11 12 13 13 13 15 14 15 16 3 9 13 12 10 12 12 11 11 12 13 14 13 6 9 5 7 7 7 6 7 2 2 3 4 7 12 10 10 10 9 7 7 6
11 11 12 13 13 14 14 14 15 16 12 10 13 11 12 9 8 9 11 11 12 13 4 3 6 7 10 8 9 6 5 2 3 2 3 5 9 10 12 11 7 8 8 6
11 11 12 13 14 14 14 14 15 16 13 12 13 11 11 12 9 7 11 12 12 12 -0 1 3 6 8 7 6 4 3 0 2 -3 0 4 7 10 12 8 7 9 9 8
11 11 12 13 14 14 15 15 15 16 13 11 12 13 14 12 13 7 11 9 10 4 4 2 2 0 4 5 7 5 4 4 3 2 1 6 9 9 8 8 11 11 9 9
11 11 12 13 13 14 14 15 15 15 15 11 11 12 13 14 14 14 11 12 10 10 2 1 2 1 4 3 5 6 6 6 5 5 6 8 9 11 12 12 12 10 10 9
11 11 12 13 13 14 14 14 14 15 12 11 11 11 11 12 14 14 14 12 12 11 11 5 1 3 1 4 4 6 7 8 4 6 9 8 11 11 10 11 11 10 9 8
11 11 12 12 13 13 14 14 14 14 13 10 10 11 11 11 12 13 14 15 13 12 11 4 1 1 5 1 4 4 7 7 7 4 7 8 10 11 11 10 9 8 7 7
11 11 11 12 12 12 13 13 13 14 14 7 9 10 10 11 11 12 13 13 13 11 8 2 3 4 2 2 1 2 8 7 4 5 11 10 10 11 10 9 8 7 6 5
10 10 11 11 11 12 12 12 12 12 13 13 4 8 9 10 10 11 12 11 12 11 11 7 8 7 6 3 5 7 11 11 12 10 11 10 10 10 8 7 6 6 5 5
9 10 10 10 11 11 12 11 10 11 12 12 4 5 8 8 9 9 9 10 10 10 9 7 6 6 7 2 4 9 12 12 11 11 9 8 8 7 6 6 5 5 4 3
8 9 9 9 10 10 10 10 10 10 11 11 2 1 6 7 8 8 8 8 8 7 6 5 4 5 3 3 6 9 9 9 9 9 8 9 8 6 5 4 4 3 2 3
7 8 8 8 9 9 8 9 9 9 10 8 3 2 4 6 5 5 6 6 2 4 3 3 4 2 4 5 6 7 8 7 8 7 6 7 6 5 4 3 1 1 2 2
6 7 8 7 8 8 8 8 9 9 8 7 2 3 2 4 3 3 3 2 1 3 2 4 2 3 4 5 5 6 7 7 8 6 4 4 3 2 1 -1 -1 2 2 1
6 7 6 6 6 7 7 5 4 3 4 5 3 3 3 3 2 1 2 2 1 4 1 3 2 2 2 3 5 5 5 6 4 4 4 2 2 -0 -1 0 0 -1 1 1
6 6 5 6 6 6 2 1 2 2 3 2 3 3 4 3 4 2 2 1 1 2 2 2 3 1 1 2 1 1 2 3 2 2 0 -1 -2 -2 -2 -1 0 1 1 0
5 5 5 4 2 3 4 4 2 2 1 1 2 2 2 3 3 2 1 2 2 2 2 3 1 -0 1 0 -0 -0 0 0 -0 -0 -0 -1 -1 -1 0 0 0 0 -0 -1
3 2 1 1 1 0 0 0 0 -0 0 1 1 1 1 1 1 0 2 1 0 3 2 -1 0 -0 -0 -1 0 1 1 1 1 0 -1 0 0 1 0 -0 -1 -1 -1 -1
1 0 -0 -1 -2 -2 -1 -1 -0 -0 -0 0 1 0 1 -0 0 -0 -0 1 1 0 -1 -1 -1 -1 -1 -0 -1 -2 0 0 1 1 1 0 -0 -0 -0 -1 -1 -2 -2 -2
-1 -0 -1 -1 -1 -1 -1 -1 -1 -0 -0 -0 0 -0 0 -0 -0 -1 -1 -0 -1 -2 -1 -1 -0 -0 -0 -1 -1 -1 -1 -1 0 0 -0 -1 -1 -1 -1 -1 -2 -2 -2 -2
-0 -1 -1 -1 -1 -1 -1 -1 -1 -0 -0 -0 -1 -1 -1 -1 -0 0 -0 -0 -1 -1 -0 0 0 0 0 0 -0 -0 -1 -1 -1 -1 -1 -1 -1 -2 -2 -2 -2 -2 -2 -2

GFSNW_850_temp_030.txt.gz
Temp
10 10 11 11 12 12 11 13 10 13 15 12 7 10 12 16 17 17 17 16 16 15 15 14 14 14 14 13 14 15 12 10 10 14 14 13 14 14 10 7 11 5 5 8
10 11 11 12 12 12 12 14 12 13 14 7 5 11 14 16 17 16 17 16 16 14 13 13 13 13 13 13 13 12 12 10 9 11 12 13 15 12 9 7 5 8 5 8
10 11 11 12 13 13 13 15 8 12 13 12 10 14 15 16 16 16 16 15 15 13 13 11 11 12 13 13 13 12 12 9 10 10 12 11 13 12 10 10 6 7 6 10
10 11 11 13 13 12 13 14 10 12 8 9 10 13 14 15 16 16 16 15 15 14 13 12 11 12 12 12 12 11 10 11 11 10 9 11 13 12 10 10 10 10 10 8
10 11 12 13 13 12 13 13 11 11 9 12 11 10 13 14 15 15 16 14 13 14 12 13 11 11 11 12 11 10 8 8 10 10 8 8 11 11 9 9 10 8 9 8
10 11 12 13 13 12 14 13 14 15 7 8 9 9 12 13 13 13 13 13 11 12 12 12 11 12 11 11 10 8 7 5 6 7 5 6 7 8 9 9 8 9 8 9
11 11 12 13 13 12 14 14 14 14 5 7 10 11 13 13 13 12 11 13 11 11 12 12 13 11 10 9 7 8 5 4 1 3 3 6 10 10 9 9 10 8 9 8
11 11 12 13 13 13 14 14 15 15 2 8 11 11 9 11 11 10 10 11 12 13 13 6 9 5 7 6 5 5 6 2 1 3 4 7 12 10 9 9 9 7 8 6
11 11 12 13 13 13 14 14 14 15 9 8 13 10 11 8 8 8 10 10 11 12 2 3 6 7 10 9 8 6 4 2 3 0 4 5 9 9 11 11 7 9 9 6
11 12 12 13 13 13 14 14 14 14 12 11 12 10 10 12 9 6 10 11 11 11 -0 1 3 6 7 7 6 3 2 0 2 -2 1 4 6 10 11 8 8 8 10 9
11 11 12 12 12 13 14 14 14 15 12 10 12 13 13 11 12 6 10 9 10 4 4 3 2 1 4 6 7 4 5 4 4 1 -0 6 8 9 8 9 11 12 11 11
11 11 11 12 13 13 13 13 14 15 15 10 11 11 12 14 14 13 11 12 10 10 2 -1 0 2 3 3 6 5 6 5 4 5 5 8 9 9 11 11 11 12 12 12
11 11 12 12 13 13 13 14 15 15 11 9 10 10 11 12 14 14 13 11 12 11 11 4 1 3 0 3 3 6 6 6 3 6 9 7 10 11 11 10 11 11 11 10
11 11 12 13 13 14 15 15 14 15 13 9 9 10 11 11 12 13 14 15 13 12 10 5 -0 2 4 0 3 3 6 6 6 4 6 9 11 12 12 11 10 10 10 9
11 11 11 12 13 13 13 14 14 14 15 7 9 9 10 11 12 13 13 14 13 11 8 2 2 4 2 1 -0 2 7 6 4 5 11 10 11 12 12 11 11 9 8 7
10 11 11 12 12 13 13 13 12 14 14 13 4 8 8 9 10 12 12 11 12 11 10 6 6 6 6 3 4 8 10 11 11 10 10 10 10 10 10 9 8 7 6 6
10 11 11 11 12 13 13 12 11 12 13 13 4 4 7 8 9 10 9 10 10 9 8 4 3 5 5 1 3 9 10 10 10 9 9 8 9 9 9 7 6 5 5 3
10 10 11 11 11 11 11 10 10 11 12 12 1 1 6 7 7 8 8 8 8 6 5 4 3 3 3 4 4 6 7 8 8 8 7 7 7 7 5 5 5 3 2 0
9 9 10 10 10 10 9 9 10 10 11 8 2 3 3 5 5 4 5 5 3 4 3 3 4 2 4 2 2 4 6 5 6 6 6 6 5 4 3 2 1 0 -1 -2
8 9 10 8 8 8 9 9 9 9 8 7 1 2 2 4 3 2 3 2 2 4 2 3 2 2 2 1 1 2 4 4 5 4 3 3 2 1 -0 -1 -1 -2 -2 -1
8 8 7 6 7 8 8 5 4 4 4 4 2 3 3 3 2 2 1 2 1 4 1 3 2 2 1 -0 1 1 1 2 2 2 1 -0 -1 -1 -2 -2 -2 -1 -0 0
7 7 6 7 7 6 2 1 2 2 2 2 3 3 3 3 4 1 1 1 0 2 2 2 2 0 -1 -0 -0 -0 -0 -0 -0 -0 -1 -1 -1 -1 -1 0 0 0 0 -0
6 6 6 5 3 3 5 4 3 2 1 1 2 1 2 3 3 1 1 2 2 1 2 3 1 -1 -1 -1 -1 -1 -0 -0 -1 -0 -0 0 0 0 0 0 0 -0 -0 -1
5 3 2 1 2 0 0 1 0 -0 0 1 2 1 1 1 1 0 2 1 1 3 2 -1 -0 -1 -1 -2 -2 -1 -0 -1 -0 -1 -1 -0 -0 -0 -0 -1 -1 -1 -1 -2
1 1 -0 -1 -2 -2 -1 -1 -0 -0 0 1 1 1 1 -0 0 -0 -0 0 -0 -1 -2 -1 -2 -2 -2 -1 -1 -1 -1 -0 -0 -1 -1 -1 -1 -1 -1 -1 -2 -2 -2 -2
-1 -1 -1 -1 -1 -1 -1 -1 -1 -0 -0 0 1 -0 -1 -1 -0 -1 -0 -1 -3 -2 -1 -1 -1 -1 -1 -1 -1 -1 -1 -1 -1 -1 -1 -1 -2 -2 -2 -2 -2 -3 -3 -3
-0 -1 -1 -1 -1 -1 -1 -1 -1 -0 -0 -0 -1 -2 -1 -2 -2 -1 -2 -3 -2 -1 -1 -1 -1 -1 -1 -1 -1 -1 -1 -1 -2 -2 -2 -2 -2 -2 -2 -2 -2 -3 -3 -3

GFSNW_850_temp_033.txt.gz
Temp
6 7 9 10 10 10 9 10 9 12 12 11 8 10 12 15 15 16 16 15 15 15 14 14 14 14 14 12 13 15 12 12 13 15 14 13 14 14 13 13 12 9 10 14
6 7 9 10 10 10 9 11 11 12 12 9 7 10 14 15 15 15 16 15 15 13 13 14 12 12 12 13 13 13 12 12 13 14 14 14 14 13 11 9 9 11 12 15
7 8 9 10 11 11 11 13 9 11 12 12 11 12 14 15 15 15 15 13 13 13 13 11 11 12 12 12 12 12 12 11 13 14 14 12 13 12 11 12 11 11 12 14
7 8 9 10 11 11 10 12 9 11 9 9 10 13 13 14 15 15 15 14 14 13 12 12 11 12 12 12 11 10 12 13 11 10 10 11 12 12 11 12 12 13 13 11
7 8 9 11 12 11 10 12 10 10 8 12 11 11 12 13 13 14 15 14 13 14 12 13 12 12 11 12 10 10 9 10 10 10 9 9 11 11 11 11 10 11 10 11
8 8 10 11 12 11 11 13 14 15 5 8 9 10 11 13 13 12 12 13 12 12 12 11 10 11 11 11 11 9 9 8 9 10 7 8 10 11 11 11 10 12 12 14
8 9 10 11 12 11 13 14 14 14 6 7 10 10 13 12 13 12 11 12 12 10 11 12 12 10 8 8 7 8 7 6 5 8 5 11 13 10 10 11 12 10 10 10
8 10 11 12 12 12 13 14 15 15 3 7 10 10 9 10 11 9 10 10 11 12 12 8 10 8 8 7 6 6 6 5 4 8 8 10 13 10 10 10 13 11 11 9
9 10 11 12 12 12 13 14 14 15 8 7 12 9 10 9 8 8 8 9 10 11 4 6 8 10 11 10 8 6 5 5 8 4 9 10 11 10 10 10 11 10 9 7
10 10 11 12 12 12 13 14 14 14 12 10 12 10 10 11 9 7 8 9 10 10 4 6 8 10 8 10 8 5 6 4 7 2 8 8 9 9 10 11 12 9 10 10
10 11 12 12 12 12 13 14 14 14 11 10 11 12 12 11 12 8 9 9 9 5 6 7 6 6 7 8 8 6 8 6 5 2 6 9 8 9 10 11 11 11 11 12
10 11 12 12 12 12 13 13 13 13 13 9 10 11 12 13 14 13 10 12 9 10 5 3 2 4 3 5 9 5 8 8 8 8 9 9 10 10 11 11 11 11 11 11
10 11 12 12 12 12 12 13 12 12 10 8 10 10 10 12 13 13 12 10 11 11 11 4 2 6 4 6 6 6 6 5 7 7 10 7 9 11 11 11 11 11 10 10
11 11 12 12 12 12 13 13 13 13 13 8 8 9 10 11 13 13 14 15 13 12 11 6 2 5 3 4 6 6 7 6 7 7 8 9 11 11 12 12 11 10 9 9
11 11 12 12 12 13 13 12 13 14 14 6 8 9 9 11 12 13 14 13 13 11 8 3 4 2 3 1 2 4 6 7 7 8 10 9 10 10 10 10 10 10 8 7
11 11 11 11 11 11 12 13 13 14 15 12 4 7 8 9 10 12 11 11 12 11 10 3 4 5 5 3 5 6 7 8 8 8 8 8 9 9 8 8 8 7 6 5
10 10 11 11 12 13 14 13 12 13 14 13 4 4 7 8 9 9 9 10 9 9 5 2 3 3 4 2 6 3 5 6 7 7 7 7 7 6 7 6 5 4 3 3
10 10 11 11 12 12 11 11 11 13 14 13 2 2 6 7 6 6 7 8 7 5 4 3 3 3 3 4 2 2 3 6 6 5 5 5 5 4 3 3 2 2 -0 -1
9 10 11 11 12 11 9 10 11 12 13 8 4 4 5 4 4 4 4 5 4 4 3 3 4 2 3 0 -1 -1 1 2 3 3 3 3 2 0 -0 0 0 -1 -2 -2
9 10 11 9 8 9 10 10 10 10 9 8 0 1 2 3 4 2 3 3 2 5 2 3 2 2 -1 -1 -1 -0 1 3 3 3 -0 -0 -1 -1 -1 -1 -1 -1 -2 -1
9 9 6 7 8 9 9 6 4 4 2 3 2 2 2 2 3 2 1 2 2 4 4 3 2 2 -1 -1 -1 -0 0 1 0 1 -1 -1 -1 -1 -1 -2 -1 -0 0 0
7 8 7 8 8 7 3 1 1 1 2 2 2 2 2 2 3 1 1 1 1 3 2 3 2 -1 -1 -1 -1 -1 -1 -0 -0 0 0 -0 -0 0 0 0 0 0 -0 -1
8 8 7 5 3 2 2 3 2 2 1 2 2 1 2 2 3 1 1 3 3 1 2 3 1 -1 -1 -1 -1 -1 -1 -0 -0 -0 -0 -0 -0 -0 -1 -1 -1 -1 -2 -2
6 4 1 -0 2 1 1 1 1 -0 1 1 2 1 1 1 1 0 3 1 1 3 3 1 -0 -1 -2 -2 -1 -1 -1 -1 -1 -1 -1 -1 -1 -1 -2 -2 -2 -2 -2 -2
2 2 0 -1 -2 -1 -1 -1 -0 -0 0 1 2 1 1 0 1 -0 0 1 1 0 0 -0 -2 -1 -2 -2 -1 -1 -1 -1 -1 -1 -2 -2 -2 -2 -2 -3 -3 -3 -3 -3
-1 -1 -1 -1 -1 -1 -1 -1 -1 -0 0 1 1 -0 1 0 0 -0 0 1 -0 -0 -1 -2 -2 -2 -2 -2 -2 -2 -2 -2 -2 -2 -2 -2 -3 -3 -3 -3 -3 -3 -3 -3
-1 -2 -1 -1 -1 -1 -1 -1 -1 -0 -0 -0 -1 -0 -0 -2 -1 -0 -1 -1 -1 -1 -1 -1 -1 -1 -1 -2 -2 -2 -2 -2 -2 -3 -3 -3 -3 -3 -3 -2 -3 -3 -4 -4

GFSNW_850_temp_036.txt.gz
Temp
3 4 5 6 7 8 7 8 12 11 11 12 14 16 17 16 18 16 19 20 20 19 19 18 19 19 19 16 18 19 17 19 18 19 17 18 19 19 19 18 17 15 16 19
2 2 4 5 7 7 7 10 11 9 10 14 14 15 17 17 18 18 18 19 19 19 19 18 18 18 14 14 17 18 18 18 17 17 17 17 18 18 18 16 16 16 15 19
2 2 2 5 6 8 10 12 12 9 9 14 16 16 17 17 16 18 17 17 18 18 17 16 16 16 15 13 15 13 16 18 19 18 19 19 17 17 17 18 16 18 17 20
1 3 3 5 7 8 10 13 14 14 13 13 16 17 18 18 17 17 18 18 19 19 17 17 16 16 15 14 12 14 17 17 16 16 15 16 17 17 17 17 18 17 19 19
0 2 5 6 7 8 10 13 13 11 15 14 16 14 17 18 17 18 18 19 18 18 18 19 17 17 17 17 14 16 14 16 14 14 14 14 15 17 17 17 18 17 18 18
2 3 5 6 7 8 11 12 13 15 9 15 16 16 17 18 17 14 15 18 17 17 16 14 15 14 15 16 16 15 15 14 14 15 12 13 12 15 17 17 17 17 17 19
3 5 6 6 7 8 12 13 13 15 12 14 16 16 16 18 17 17 14 16 17 11 11 13 13 13 13 13 12 13 13 14 11 12 9 12 18 15 16 17 18 18 17 18
4 6 6 7 8 10 12 14 15 14 8 14 15 16 15 14 13 14 14 11 11 11 13 15 14 13 11 12 11 12 13 13 9 11 14 16 18 15 14 14 17 18 17 17
5 6 7 8 9 10 12 14 15 16 10 11 15 15 15 15 15 13 10 8 9 11 12 13 13 14 15 14 12 11 11 11 13 9 12 13 16 13 12 14 15 15 14 15
6 7 8 9 9 10 12 14 14 15 12 11 12 15 14 14 15 14 11 10 10 10 11 12 13 14 13 14 12 8 9 9 10 10 11 14 15 13 12 14 15 14 12 13
7 8 9 10 10 11 12 13 14 15 11 9 11 12 12 12 14 14 11 12 11 11 11 12 13 12 13 13 14 12 12 11 9 9 10 11 12 12 13 14 13 12 12 12
8 9 9 10 11 10 12 13 13 14 13 9 10 12 13 14 13 12 11 14 13 14 13 10 9 8 6 11 14 11 13 14 14 13 15 13 12 13 12 11 11 12 11 11
9 9 10 11 11 11 12 13 13 13 9 8 10 9 11 12 13 14 13 11 12 11 11 10 9 8 11 8 12 12 12 10 12 11 15 13 12 12 12 11 11 10 10 10
10 10 11 11 11 11 12 13 12 12 11 8 9 9 10 11 12 13 14 15 13 13 10 8 6 9 8 10 12 12 12 11 12 12 13 13 12 11 10 10 10 9 9 8
10 11 11 11 11 11 12 13 13 12 12 7 8 8 9 11 12 12 13 13 13 11 9 6 9 8 8 6 8 10 10 11 11 12 10 10 11 9 8 8 8 7 7 6
11 11 11 11 11 12 13 12 12 12 12 11 8 7 7 8 10 11 11 12 12 10 10 5 7 5 8 7 11 7 7 7 7 9 7 8 7 7 5 5 5 4 4 3
10 10 10 11 11 11 13 13 13 13 12 12 6 7 7 8 9 9 9 10 10 8 5 4 5 5 8 5 11 5 5 5 5 5 6 8 4 4 3 2 1 1 -0 -1
9 9 9 10 10 13 13 13 12 13 13 13 6 6 7 7 5 5 6 6 7 5 4 4 4 4 5 6 3 3 3 4 4 3 4 3 2 2 1 -1 -1 -1 -1 -1
9 10 10 10 10 10 9 11 12 12 13 9 5 7 7 4 3 4 5 5 5 4 4 4 6 4 4 1 1 1 0 1 1 2 2 1 -0 -1 -2 -1 -1 -1 -2 -2
10 10 11 10 9 10 10 11 12 12 10 8 2 2 4 4 4 3 4 3 4 6 4 3 4 1 -0 -1 -1 -0 0 0 1 1 -1 -1 -2 -1 -1 -1 -1 -1 -1 -0
10 9 7 8 9 10 9 6 6 6 4 3 2 3 4 3 5 3 2 4 4 6 6 6 4 2 -0 -1 -1 -1 -1 -1 1 1 -0 -0 0 0 0 -0 -0 -1 -2 -2
8 9 8 8 8 8 4 3 3 4 4 2 3 2 2 2 3 3 3 3 3 4 4 5 4 1 -1 -1 -1 -1 -1 -1 -1 -1 -1 -2 -2 -2 -2 -1 -1 -1 -1 -2
8 8 8 7 4 5 6 5 4 4 1 2 2 2 2 2 2 2 3 4 4 4 3 5 2 -1 -1 -1 -1 -1 -2 -2 -2 -2 -1 -1 -1 -1 -1 -2 -2 -2 -2 -3
6 4 3 3 4 3 2 3 2 -0 1 2 2 1 2 2 2 1 4 2 2 4 4 3 1 -1 -2 -1 -1 -1 -1 -1 -1 -1 -1 -1 -1 -2 -2 -2 -2 -2 -2 -3
2 2 2 1 -1 -1 -1 -1 -0 -0 1 2 2 1 2 1 2 1 2 3 4 4 4 2 -1 -2 -2 -2 -2 -2 -1 -1 -1 -2 -2 -2 -2 -3 -3 -3 -3 -3 -3 -3
-0 -1 -0 -1 -0 -1 -1 -1 -1 0 1 1 2 1 3 2 2 3 3 4 4 2 1 -2 -2 -2 -2 -2 -3 -2 -2 -2 -2 -2 -2 -3 -3 -3 -3 -4 -3 -3 -3 -4
-1 -1 -1 -1 -1 -1 -1 -1 -1 -0 0 1 1 3 2 1 2 2 2 2 2 -1 -2 -2 -2 -2 -2 -2 -2 -2 -2 -2 -2 -3 -3 -3 -4 -4 -4 -4 -4 -4 -5 -6

GFSNW_850_temp_042.txt.gz
Temp
1 2 2 3 3 4 5 5 8 11 9 9 11 13 16 17 19 21 21 22 22 22 22 22 21 21 23 23 23 21 22 21 19 20 23 23 22 22 22 18 18 19 17 18
1 1 2 3 3 4 5 6 9 9 11 11 12 14 16 17 19 20 21 21 22 23 22 21 22 22 20 21 22 21 22 20 18 20 21 22 21 22 22 22 20 18 15 18
1 1 2 3 3 4 5 8 9 8 8 13 14 14 16 17 19 21 21 21 22 22 21 22 21 22 19 19 20 17 19 21 20 18 20 22 21 21 22 21 16 17 17 20
0 1 2 3 3 3 5 8 11 10 9 11 15 16 17 17 19 20 21 21 21 21 20 21 21 22 18 18 17 18 20 19 20 21 22 21 20 21 21 21 21 18 19 20
-0 0 2 2 3 3 4 8 11 11 14 13 14 14 16 18 20 20 20 20 21 22 20 21 20 21 19 19 18 19 20 18 18 18 20 20 19 20 20 21 21 21 21 21
-1 0 2 3 3 2 4 6 11 13 12 14 14 15 17 18 20 21 21 21 21 20 21 22 20 22 21 21 19 18 19 17 16 16 17 16 13 17 19 20 21 21 19 21
-0 1 2 2 2 2 4 6 9 11 14 15 15 16 17 17 20 18 21 21 21 19 18 19 19 19 19 20 19 20 18 17 15 14 11 13 18 21 20 19 20 21 21 20
1 1 1 2 2 1 2 5 7 11 10 16 16 16 17 18 19 15 19 17 18 18 18 16 15 14 13 16 18 18 19 15 12 11 14 17 18 19 19 18 18 19 18 18
1 1 2 2 2 1 2 6 6 7 12 15 17 18 18 18 15 13 14 15 17 18 17 15 16 15 17 17 16 17 17 17 13 12 12 11 17 17 18 18 16 17 17 17
1 2 1 1 3 2 1 5 6 5 10 16 17 18 18 16 11 11 14 13 14 15 12 11 15 16 19 16 14 9 11 11 10 12 11 14 18 17 16 15 14 16 15 16
1 1 1 2 3 2 2 7 7 5 10 16 17 18 19 16 11 10 15 15 15 15 13 14 15 13 16 17 18 13 12 12 10 13 9 10 17 16 15 15 15 15 15 15
1 1 1 3 4 4 3 3 7 9 8 12 15 13 13 16 15 15 14 17 16 16 16 14 14 10 8 13 15 18 15 16 15 14 14 16 17 16 15 15 14 14 13 13
1 2 2 4 4 4 5 5 7 10 11 11 13 12 13 15 16 15 15 17 18 17 17 15 13 9 14 9 14 16 17 16 15 15 18 17 16 15 13 12 12 12 12 12
1 3 4 4 4 4 5 5 8 11 13 9 10 11 12 14 13 13 16 16 16 15 15 12 7 9 16 13 16 15 16 16 16 16 16 16 13 11 10 10 10 10 10 9
4 4 4 4 5 6 6 7 7 11 13 9 10 10 10 12 13 13 14 15 15 14 12 6 12 14 12 12 13 14 15 15 13 13 12 12 10 9 9 8 7 7 7 5
5 6 6 6 7 7 6 7 11 13 11 10 9 9 10 11 12 12 13 13 15 15 11 11 13 11 13 9 13 13 11 11 11 12 10 10 8 6 5 4 4 3 3 2
7 7 7 7 7 7 7 9 11 12 12 10 8 8 8 10 10 10 12 12 12 13 11 9 11 11 12 7 12 11 10 9 9 8 8 7 8 5 2 1 1 2 1 1
8 8 7 7 8 7 8 9 10 11 11 10 7 5 8 8 9 8 8 11 11 8 7 8 9 8 9 10 10 9 8 8 7 7 7 6 4 3 2 1 -0 -1 -1 -1
8 8 8 7 8 8 9 9 11 11 11 9 5 7 7 7 6 6 7 9 6 7 6 8 8 7 8 10 8 6 6 6 5 4 4 3 3 2 1 0 -0 -1 -0 0
8 8 9 8 9 9 10 10 10 10 8 6 5 7 7 7 6 5 6 6 7 8 6 6 6 5 4 3 3 3 4 4 3 3 2 2 1 1 1 1 -0 -1 -1 -1
8 9 7 8 9 9 10 8 9 8 6 5 6 7 7 6 6 5 5 5 7 7 7 7 6 6 3 2 2 2 3 3 3 2 2 1 0 0 -0 -0 -1 -1 -1 -1
10 9 9 9 9 8 5 4 4 6 6 3 4 5 5 4 7 6 6 4 6 7 7 6 6 3 2 2 2 3 2 2 1 1 1 0 0 -0 -1 -2 -2 -2 -2 -2
10 10 9 8 4 5 6 5 5 4 2 2 3 3 4 4 5 4 5 5 6 7 5 7 4 1 1 1 1 2 1 1 1 0 -1 -1 -1 -2 -1 -2 -3 -3 -3 -2
7 4 3 4 4 3 2 3 2 0 2 3 3 3 3 3 3 4 4 3 5 5 5 6 1 -0 0 1 1 0 0 0 -0 -1 -2 -1 -1 -2 -2 -2 -3 -3 -3 -3
2 2 2 1 -1 -1 -1 -0 0 1 2 3 3 3 4 3 3 3 3 3 5 5 5 2 -0 -0 0 0 0 -0 -1 -1 -2 -2 -2 -2 -3 -3 -3 -3 -3 -3 -4 -4
-0 -1 0 -0 0 -0 -0 -0 -0 0 2 3 4 4 4 3 3 4 5 5 6 3 1 -0 -0 -0 -0 -1 -2 -1 -1 -1 -2 -2 -2 -3 -3 -4 -4 -4 -4 -4 -4 -5
-1 -1 -1 -1 -1 -1 -2 -1 -0 1 1 2 3 4 3 3 4 4 2 2 1 -0 -1 -1 -0 -1 -1 -1 -1 -1 -2 -3 -4 -4 -4 -3 -4 -4 -5 -6 -5 -6 -8 -8

GFSNW_850_temp_045.txt.gz
Temp
-0 0 1 2 2 3 3 5 6 8 8 7 8 8 11 13 15 17 17 19 19 19 18 19 18 19 19 22 21 18 16 13 12 15 16 19 20 19 16 10 16 13 9 13
-1 -0 1 2 2 3 3 6 7 8 9 7 7 10 11 13 15 15 17 19 19 20 18 18 18 19 18 20 19 18 19 16 12 15 16 18 19 19 20 17 12 14 9 12
-1 -0 0 2 2 3 3 6 7 7 7 11 10 9 11 12 15 15 17 18 19 18 18 19 18 16 18 18 16 18 19 18 15 13 16 17 19 19 19 17 9 13 12 16
-1 -1 0 1 2 3 3 5 8 10 8 8 10 11 12 12 13 16 17 17 18 17 17 19 18 16 16 18 17 18 16 16 18 17 18 18 19 19 18 18 16 13 14 16
-1 -1 0 1 1 2 2 6 9 10 10 10 10 10 12 13 15 16 16 16 17 17 17 17 17 17 16 16 16 16 16 14 17 16 17 16 15 16 17 17 17 18 17 17
-1 -1 -1 1 1 2 2 4 9 11 10 10 9 10 13 14 15 16 17 17 17 17 17 20 19 21 19 17 14 14 14 14 10 13 12 13 10 14 16 16 17 17 16 15
-1 -1 -0 1 1 1 3 3 6 9 9 10 10 12 13 14 14 15 18 19 16 18 19 19 19 17 17 16 15 16 13 13 8 8 8 9 14 18 18 16 15 14 15 14
-1 -1 0 0 1 1 2 4 5 7 4 11 11 12 13 15 15 15 16 17 17 19 18 11 12 9 11 14 16 15 14 9 8 8 8 12 15 16 17 15 14 14 13 13
-1 -0 0 0 1 2 2 3 3 2 7 10 13 13 14 13 13 11 11 15 16 18 12 9 11 10 13 13 14 12 12 10 7 7 8 7 12 16 17 16 10 13 14 12
-1 -0 -0 1 2 2 2 3 2 2 5 11 14 13 14 15 11 9 10 11 13 14 4 7 7 10 15 11 10 9 6 7 6 4 5 8 14 16 16 11 9 14 14 13
-1 -0 1 1 1 2 3 3 2 3 4 9 12 15 15 13 12 8 10 11 10 10 9 8 7 7 10 11 12 9 9 7 5 6 7 9 16 15 12 11 13 13 13 13
1 1 1 1 2 3 4 2 4 3 4 6 9 13 14 15 15 11 11 12 10 13 10 8 6 8 5 9 9 13 9 9 8 9 8 12 14 12 12 12 12 12 12 12
0 1 1 2 2 3 1 2 2 3 4 5 6 11 14 15 14 16 12 12 13 16 16 9 7 7 6 6 7 12 14 15 11 11 13 12 10 11 11 11 10 10 10 10
1 1 1 1 1 1 1 1 2 4 4 2 8 10 11 13 13 16 16 15 16 16 16 7 4 6 12 6 10 9 11 13 12 11 10 9 9 9 9 9 9 9 8 8
0 0 -0 1 0 1 1 1 3 5 4 7 8 11 11 11 12 13 14 14 16 15 9 4 6 10 8 7 7 6 13 11 7 6 9 8 7 7 8 8 6 6 7 6
1 1 1 1 2 2 2 3 5 5 4 7 6 9 11 12 12 15 13 14 15 13 11 8 11 11 10 4 4 10 10 10 11 9 9 7 6 6 6 6 5 4 4 4
1 2 2 2 3 3 4 6 7 7 7 9 5 6 10 10 11 12 11 13 11 12 9 9 9 10 8 3 5 9 9 9 8 8 7 5 5 2 3 4 2 2 2 1
2 3 2 3 4 4 5 7 8 9 9 9 5 4 7 9 9 8 9 10 9 7 7 8 6 7 8 4 7 9 8 7 7 7 8 5 2 2 1 1 1 1 0 -0
4 4 4 5 5 6 8 9 10 11 11 4 4 5 6 8 6 7 8 8 5 7 3 6 6 4 5 7 6 7 7 6 4 4 3 2 2 1 -0 0 -0 -1 -1 -1
5 6 6 7 7 9 9 10 11 10 8 5 3 6 5 6 5 5 5 6 3 4 4 7 3 3 3 4 5 5 5 5 4 3 2 1 1 0 -0 -1 -1 -1 -0 -0
6 6 6 7 8 9 9 7 6 7 2 5 5 6 5 6 3 3 5 3 2 3 3 3 3 3 3 3 3 4 4 4 3 3 2 1 1 0 -0 -1 -0 -1 -1 -1
8 6 7 7 8 8 3 2 3 2 3 3 3 4 4 6 6 3 4 4 1 4 5 4 3 2 2 2 3 3 3 3 2 2 1 1 0 -0 -0 -1 -2 -2 -2 -2
9 9 8 7 4 3 3 2 3 3 2 3 4 2 4 4 4 4 3 5 2 5 5 5 2 1 2 2 2 2 1 1 1 0 0 -0 -1 -1 -1 -2 -3 -3 -3 -3
8 4 2 2 3 1 0 1 1 0 2 3 3 3 2 3 2 1 4 2 4 5 4 3 1 1 1 1 1 1 -0 -0 -0 -0 -1 -1 -1 -2 -3 -3 -3 -3 -3 -3
2 2 1 0 -1 -1 -1 -0 0 1 2 3 3 2 3 1 2 1 2 3 4 3 2 1 0 0 0 -0 -0 -1 -1 -1 -2 -1 -1 -2 -2 -2 -3 -4 -4 -4 -4 -4
-0 -1 0 -0 0 -0 -1 -0 -0 1 2 3 4 1 2 2 2 4 3 2 2 2 0 -0 0 0 -1 -1 -2 -2 -2 -3 -2 -2 -3 -3 -4 -4 -4 -5 -5 -4 -5 -5
-1 -1 -2 -1 -1 -2 -2 -1 -0 1 1 1 1 2 2 1 3 2 1 1 0 -1 -1 -0 -0 -1 -2 -2 -3 -2 -3 -3 -3 -3 -4 -4 -5 -5 -5 -5 -7 -7 -7 -8